Change the Weather History Date:

Saturday, February 23, 2013

  Actual Average Record
Temperature  
Mean Temperature 27 °F -  
Max Temperature 30 °F 39 °F 50 °F (2014)
Min Temperature 24 °F 30 °F 28 °F (2015)
Degree Days  
Heating Degree Days 38    
Moisture  
Dew Point 26 °F    
Average Humidity 94    
Maximum Humidity 100    
Minimum Humidity 92    
Precipitation  
Precipitation 0.11 in - - ()
Sea Level Pressure  
Sea Level Pressure 30.25 in    
Wind  
Wind Speed 3 mph (North)    
Max Wind Speed 8 mph    
Max Gust Speed 17 mph    
Visibility 3 miles    
Events Fog , Snow    
Averages and records for this station are not official NWS values.
T = Trace of Precipitation, MM = Missing Value Source: NWS Daily Summary

Daily Weather History Graph

Daily Weather History Graph

Search for Another Location

Airport or City:

Trip Planner

Search our weather history database for the weather conditions in past years. The results will help you decide how hot, cold, wet, or windy it might be!

Date:

Astronomy

Feb. 23, 2013 Rise Set
Actual Time 6:57 AM PST 5:56 PM PST
Civil Twilight 6:29 AM PST 6:24 PM PST
Nautical Twilight 5:56 AM PST 6:57 PM PST
Astronomical Twilight 5:24 AM PST 7:30 PM PST
Moon 4:10 PM PST (2/23) 5:25 AM PST (2/23)
Length of Visible Light 11h 55m
Length of Day
10h 58m
Waxing Gibbous, 96% of the Moon is Illuminated
Feb 23
Waxing Gibbous
Feb 25
Full
Mar 4
Last Quarter
Mar 11
New
Mar 19
First Quarter

Hourly Weather History & Observations

Time (PST) Temp. Windchill Dew Point Humidity Pressure Visibility Wind Dir Wind Speed Gust Speed Precip Events Conditions
12:09 AM 28.4 °F 22.2 °F 26.6 °F 93% 30.08 in 0.5 mi Variable 5.8 mph - 0.01 in Fog , Snow Light Snow
12:35 AM 28.4 °F 23.3 °F 26.6 °F 93% 30.09 in 1.0 mi Variable 4.6 mph - 0.01 in   Mist
12:48 AM 26.6 °F 21.2 °F 24.8 °F 93% 30.09 in 1.8 mi Variable 4.6 mph - 0.01 in   Overcast
12:56 AM 27.0 °F 21.6 °F 25.0 °F 92% 30.16 in 1.2 mi Variable 4.6 mph - 0.01 in   Overcast
1:08 AM 26.6 °F 19.1 °F 24.8 °F 93% 30.09 in 2.0 mi Variable 6.9 mph - N/A   Overcast
1:24 AM 26.6 °F 20.0 °F 24.8 °F 93% 30.09 in 4.0 mi Variable 5.8 mph 17.3 mph 0.00 in   Overcast
1:38 AM 26.6 °F 21.2 °F 24.8 °F 93% 30.10 in 2.5 mi Variable 4.6 mph - 0.00 in   Overcast
1:53 AM 26.6 °F 22.6 °F 24.8 °F 93% 30.10 in 1.2 mi Variable 3.5 mph - 0.00 in   Overcast
1:56 AM 27.0 °F 21.6 °F 26.1 °F 96% 30.19 in 1.2 mi Variable 4.6 mph - 0.00 in   Overcast
2:05 AM 26.6 °F 22.6 °F 24.8 °F 93% 30.10 in 1.5 mi Variable 3.5 mph - 0.00 in   Overcast
2:20 AM 26.6 °F 22.6 °F 24.8 °F 93% 30.11 in 4.0 mi Variable 3.5 mph - 0.00 in   Overcast
2:56 AM 26.1 °F 19.4 °F 24.1 °F 92% 30.20 in 10.0 mi Variable 5.8 mph - 0.00 in   Overcast
3:12 AM 26.6 °F 21.2 °F 24.8 °F 93% 30.11 in 9.0 mi Variable 4.6 mph - 0.00 in   Overcast
3:20 AM 26.6 °F 21.2 °F 24.8 °F 93% 30.11 in 2.0 mi Variable 4.6 mph - 0.00 in   Overcast
3:22 AM 26.6 °F 21.2 °F 24.8 °F 93% 30.11 in 1.5 mi Variable 4.6 mph - 0.00 in   Overcast
3:25 AM 26.6 °F 22.6 °F 24.8 °F 93% 30.11 in 1.2 mi Variable 3.5 mph - 0.00 in   Overcast
3:35 AM 26.6 °F 20.0 °F 24.8 °F 93% 30.11 in 0.8 mi NNW 5.8 mph - 0.00 in Snow Light Snow
3:40 AM 26.6 °F 21.2 °F 24.8 °F 93% 30.11 in 1.0 mi Variable 4.6 mph - 0.00 in Snow Light Snow
3:45 AM 26.6 °F 21.2 °F 24.8 °F 93% 30.11 in 2.0 mi Variable 4.6 mph - 0.00 in   Overcast
3:54 AM 26.6 °F 20.0 °F 24.8 °F 93% 30.11 in 3.0 mi NNW 5.8 mph - 0.00 in   Overcast
3:56 AM 26.1 °F 17.6 °F 24.1 °F 92% 30.21 in 4.0 mi NW 8.1 mph - 0.00 in   Overcast
4:02 AM 26.6 °F 21.2 °F 24.8 °F 93% 30.12 in 1.8 mi Variable 4.6 mph - 0.00 in Snow Light Snow
4:23 AM 26.6 °F 19.1 °F 24.8 °F 93% 30.12 in 1.0 mi Variable 6.9 mph - 0.00 in Snow Light Snow
4:41 AM 26.6 °F 22.6 °F 24.8 °F 93% 30.13 in 0.8 mi Variable 3.5 mph - 0.00 in Snow Light Snow
4:49 AM 26.6 °F - 24.8 °F 93% 30.13 in 1.5 mi Calm Calm - 0.00 in   Overcast
4:56 AM 26.1 °F 21.9 °F 25.0 °F 96% 30.24 in 1.2 mi Variable 3.5 mph - 0.00 in   Overcast
5:04 AM 26.6 °F - 24.8 °F 93% 30.14 in 0.8 mi Calm Calm - 0.00 in Snow Light Snow
5:31 AM 26.6 °F - 24.8 °F 93% 30.16 in 1.5 mi Calm Calm - 0.01 in Snow Light Snow
5:34 AM 26.6 °F 21.2 °F 24.8 °F 93% 30.16 in 4.0 mi NNW 4.6 mph - 0.01 in Snow Light Snow
5:49 AM 24.8 °F - 24.8 °F 100% 30.16 in 10.0 mi Calm Calm - 0.01 in   Overcast
5:56 AM 26.1 °F - 24.1 °F 92% 30.26 in 10.0 mi Calm Calm - 0.02 in   Overcast
6:28 AM 26.6 °F - 24.8 °F 93% 30.17 in 1.5 mi Calm Calm - 0.00 in Snow Light Snow
6:32 AM 26.6 °F - 24.8 °F 93% 30.18 in 1.0 mi Calm Calm - 0.00 in Snow Light Snow
6:40 AM 26.6 °F - 24.8 °F 93% 30.18 in 0.5 mi Calm Calm - 0.01 in Fog , Snow Snow
6:56 AM 26.1 °F - 24.1 °F 92% 30.28 in 0.5 mi Calm Calm - 0.01 in Fog Light Freezing Fog
7:20 AM 24.8 °F - 23.0 °F 93% 30.19 in 1.5 mi Calm Calm - 0.00 in   Overcast
7:23 AM 24.8 °F 20.5 °F 23.0 °F 93% 30.19 in 4.0 mi Variable 3.5 mph - 0.00 in   Overcast
7:40 AM 26.6 °F 22.6 °F 24.8 °F 93% 30.19 in 6.0 mi NW 3.5 mph - 0.00 in Snow Light Snow
7:49 AM 26.6 °F - 24.8 °F 93% 30.19 in 4.0 mi Calm Calm - 0.00 in Snow Light Snow
7:51 AM 26.6 °F 22.6 °F 24.8 °F 93% 30.19 in 1.8 mi Variable 3.5 mph - 0.00 in Snow Light Snow
7:54 AM 26.6 °F 22.6 °F 24.8 °F 93% 30.20 in 0.8 mi Variable 3.5 mph - 0.00 in   Overcast
7:56 AM 26.1 °F 21.9 °F 25.0 °F 96% 30.30 in 0.8 mi Variable 3.5 mph - 0.00 in   Overcast
8:03 AM 26.6 °F - 24.8 °F 93% 30.20 in 1.8 mi Calm Calm - 0.00 in   Overcast
8:06 AM 26.6 °F 22.6 °F 24.8 °F 93% 30.20 in 4.0 mi Variable 3.5 mph - 0.00 in   Overcast
8:16 AM 26.6 °F - 24.8 °F 93% 30.20 in 2.5 mi Calm Calm - 0.00 in   Overcast
8:20 AM 26.6 °F - 24.8 °F 93% 30.21 in 1.8 mi Calm Calm - 0.00 in   Overcast
8:29 AM 26.6 °F - 24.8 °F 93% 30.21 in 1.0 mi Calm Calm - 0.00 in   Overcast
8:56 AM 28.0 °F - 26.1 °F 92% 30.32 in 1.2 mi Calm Calm - 0.00 in   Overcast
9:05 AM 28.4 °F - 26.6 °F 93% 30.23 in 0.8 mi Calm Calm - 0.00 in   Mist
9:46 AM 26.6 °F - 26.6 °F 100% 30.25 in 0.2 mi Calm Calm - 0.00 in Fog , Snow Light Snow
9:56 AM 28.0 °F - 26.1 °F 92% 30.35 in 0.2 mi Calm Calm - 0.00 in Fog , Snow Light Snow
10:08 AM 28.4 °F - 26.6 °F 93% 30.26 in 0.8 mi Calm Calm - 0.00 in   Mist
10:14 AM 28.4 °F 24.6 °F 26.6 °F 93% 30.26 in 1.5 mi Variable 3.5 mph - 0.00 in   Overcast
10:22 AM 28.4 °F - 26.6 °F 93% 30.26 in 2.0 mi Calm Calm - 0.00 in   Overcast
10:34 AM 28.4 °F - 28.4 °F 100% 30.26 in 4.0 mi Calm Calm - 0.00 in   Overcast
10:48 AM 28.4 °F - 28.4 °F 100% 30.27 in 1.8 mi Calm Calm - 0.00 in   Overcast
10:56 AM 28.0 °F - 28.0 °F 100% 30.38 in 1.5 mi Calm Calm - 0.00 in   Overcast
11:24 AM 28.4 °F - 26.6 °F 93% 30.28 in 1.2 mi Calm Calm - 0.00 in Snow Light Snow
11:27 AM 28.4 °F - 26.6 °F 93% 30.28 in 0.5 mi Calm Calm - 0.01 in Fog , Snow Snow
11:31 AM 26.6 °F - 26.6 °F 100% 30.27 in 0.2 mi Calm Calm - 0.01 in Fog , Snow Snow
11:56 AM 28.9 °F 25.2 °F 28.9 °F 100% 30.38 in 0.2 mi NNW 3.5 mph - 0.03 in Fog Light Freezing Fog
12:05 PM 30.2 °F - 28.4 °F 93% 30.27 in 0.5 mi Calm Calm - 0.00 in Fog , Snow Light Snow
12:18 PM 28.4 °F - 28.4 °F 100% 30.27 in 0.2 mi Calm Calm - 0.00 in Fog , Snow Snow
12:38 PM 28.4 °F 24.6 °F 28.4 °F 100% 30.26 in 1.0 mi Variable 3.5 mph - 0.02 in Snow Light Snow
12:43 PM 28.4 °F - 28.4 °F 100% 30.26 in 2.0 mi Calm Calm - 0.02 in   Overcast
12:51 PM 28.4 °F - 28.4 °F 100% 30.26 in 1.2 mi Calm Calm - 0.02 in   Overcast
12:56 PM 30.0 °F - 28.0 °F 92% 30.36 in 0.5 mi Calm Calm - 0.02 in Fog Light Freezing Fog
1:10 PM 30.2 °F - 28.4 °F 93% 30.26 in 1.0 mi Calm Calm - N/A   Overcast
1:18 PM 30.2 °F - 28.4 °F 93% 30.26 in 0.8 mi Calm Calm - N/A   Overcast
1:20 PM 30.2 °F - 28.4 °F 93% 30.26 in 1.0 mi Calm Calm - N/A   Overcast
1:24 PM 30.2 °F - 28.4 °F 93% 30.26 in 2.0 mi Calm Calm - N/A   Overcast
1:33 PM 30.2 °F - 28.4 °F 93% 30.26 in 1.2 mi Calm Calm - N/A   Overcast
1:40 PM 30.2 °F - 28.4 °F 93% 30.26 in 0.2 mi Calm Calm - 0.00 in Fog , Snow Light Snow
1:56 PM 30.0 °F - 28.9 °F 96% 30.36 in 0.2 mi Calm Calm - 0.00 in Fog , Snow Light Snow
2:06 PM 30.2 °F 25.4 °F 28.4 °F 93% 30.26 in 0.5 mi Variable 4.6 mph - 0.00 in Fog Light Freezing Fog
2:14 PM 30.2 °F 26.7 °F 28.4 °F 93% 30.26 in 1.2 mi Variable 3.5 mph - 0.00 in   Overcast
2:56 PM 30.0 °F - 28.9 °F 96% 30.37 in 1.8 mi Calm Calm - 0.00 in   Overcast
3:05 PM 30.2 °F - 28.4 °F 93% 30.26 in 1.0 mi Calm Calm - N/A   Overcast
3:12 PM 28.4 °F - 28.4 °F 100% 30.26 in 2.5 mi Calm Calm - N/A   Overcast
3:27 PM 28.4 °F - 26.6 °F 93% 30.27 in 1.0 mi Calm Calm - 0.00 in Snow Light Snow
3:32 PM 28.4 °F - 28.4 °F 100% 30.27 in 0.2 mi Calm Calm - 0.01 in Fog , Snow Light Snow
3:48 PM 30.2 °F 26.7 °F 28.4 °F 93% 30.27 in 1.0 mi Variable 3.5 mph - 0.02 in Snow Light Snow
3:56 PM 28.9 °F 25.2 °F 28.0 °F 96% 30.38 in 1.8 mi NNW 3.5 mph - 0.02 in   Overcast
4:05 PM 28.4 °F 24.6 °F 28.4 °F 100% 30.27 in 1.2 mi Variable 3.5 mph - N/A   Mostly Cloudy
4:15 PM 30.2 °F - 28.4 °F 93% 30.28 in 1.5 mi Calm Calm - N/A   Overcast
4:22 PM 30.2 °F - 28.4 °F 93% 30.28 in 1.0 mi Calm Calm - N/A   Overcast
4:33 PM 30.2 °F - 28.4 °F 93% 30.28 in 0.5 mi Calm Calm - 0.00 in Fog Light Freezing Fog
4:47 PM 28.4 °F - 26.6 °F 93% 30.28 in 0.8 mi Calm Calm - 0.00 in   Overcast
4:53 PM 28.4 °F 22.2 °F 26.6 °F 93% 30.28 in 2.0 mi Variable 5.8 mph - 0.00 in   Overcast
4:56 PM 28.0 °F - 27.0 °F 96% 30.40 in 5.0 mi Calm Calm - 0.00 in   Overcast
5:14 PM 28.4 °F 22.2 °F 26.6 °F 93% 30.28 in 7.0 mi Variable 5.8 mph - N/A   Overcast
5:25 PM 26.6 °F 22.6 °F 26.6 °F 100% 30.28 in 6.0 mi Variable 3.5 mph - N/A   Overcast
5:51 PM 28.4 °F - 26.6 °F 93% 30.28 in 5.0 mi Calm Calm - N/A   Overcast
5:56 PM 27.0 °F - 26.1 °F 96% 30.40 in 4.0 mi Calm Calm - N/A   Overcast
6:06 PM 28.4 °F - 26.6 °F 93% 30.28 in 3.0 mi Calm Calm - 0.00 in   Overcast
6:12 PM 28.4 °F 24.6 °F 26.6 °F 93% 30.29 in 2.0 mi Variable 3.5 mph - 0.00 in   Overcast
6:20 PM 28.4 °F 24.6 °F 26.6 °F 93% 30.29 in 1.5 mi Variable 3.5 mph - 0.00 in Snow Light Snow
6:24 PM 28.4 °F 24.6 °F 26.6 °F 93% 30.29 in 0.8 mi Variable 3.5 mph - 0.00 in Snow Light Snow
6:56 PM 27.0 °F 23.0 °F 26.1 °F 96% 30.42 in 1.8 mi Variable 3.5 mph - 0.00 in   Overcast
7:05 PM 26.6 °F 22.6 °F 26.6 °F 100% 30.30 in 2.0 mi Variable 3.5 mph - N/A   Overcast
7:18 PM 26.6 °F 21.2 °F 24.8 °F 93% 30.31 in 1.5 mi North 4.6 mph - N/A   Overcast
7:39 PM 26.6 °F 19.1 °F 24.8 °F 93% 30.30 in 3.0 mi North 6.9 mph - N/A   Overcast
7:48 PM 26.6 °F 20.0 °F 24.8 °F 93% 30.30 in 5.0 mi Variable 5.8 mph - N/A   Overcast
7:56 PM 26.1 °F 18.4 °F 25.0 °F 96% 30.43 in 4.0 mi Variable 6.9 mph - N/A   Overcast
8:06 PM 26.6 °F 20.0 °F 24.8 °F 93% 30.30 in 8.0 mi Variable 5.8 mph - N/A   Overcast
8:41 PM 26.6 °F 19.1 °F 24.8 °F 93% 30.30 in 10.0 mi North 6.9 mph - N/A   Scattered Clouds
8:56 PM 26.1 °F 19.4 °F 24.1 °F 92% 30.42 in 10.0 mi North 5.8 mph - N/A   Partly Cloudy
9:12 PM 24.8 °F 19.1 °F 24.8 °F 100% 30.30 in 10.0 mi North 4.6 mph - N/A   Scattered Clouds
9:28 PM 26.6 °F 19.1 °F 24.8 °F 93% 30.31 in 10.0 mi North 6.9 mph - N/A   Mostly Cloudy
9:35 PM 26.6 °F 20.0 °F 24.8 °F 93% 30.31 in 10.0 mi North 5.8 mph - N/A   Mostly Cloudy
9:56 PM 26.1 °F 19.4 °F 24.1 °F 92% 30.42 in 8.0 mi North 5.8 mph - N/A   Overcast
10:04 PM 26.6 °F 19.1 °F 24.8 °F 93% 30.31 in 8.0 mi North 6.9 mph - N/A   Overcast
10:18 PM 24.8 °F 16.9 °F 24.8 °F 100% 30.31 in 7.0 mi North 6.9 mph - N/A   Overcast
10:52 PM 26.6 °F - 24.8 °F 93% 30.32 in 8.0 mi Calm Calm - N/A   Overcast
10:56 PM 26.1 °F - 25.0 °F 96% 30.44 in 7.0 mi Calm Calm - N/A   Overcast
11:02 PM 26.6 °F - 24.8 °F 93% 30.32 in 1.8 mi Calm Calm - 0.00 in   Overcast
11:06 PM 26.6 °F - 24.8 °F 93% 30.31 in 0.8 mi Calm Calm - 0.00 in   Overcast
11:15 PM 26.6 °F 21.2 °F 24.8 °F 93% 30.32 in 1.5 mi Variable 4.6 mph - 0.00 in   Overcast
11:24 PM 26.6 °F 20.0 °F 24.8 °F 93% 30.32 in 2.5 mi NNE 5.8 mph - 0.00 in   Overcast
11:32 PM 24.8 °F 16.1 °F 23.0 °F 93% 30.31 in 4.0 mi NNE 8.1 mph - 0.00 in   Overcast
11:51 PM 24.8 °F 16.1 °F 23.0 °F 93% 30.31 in 9.0 mi NNE 8.1 mph - 0.00 in   Mostly Cloudy
11:56 PM 25.0 °F 16.3 °F 23.0 °F 92% 30.43 in 3.0 mi North 8.1 mph - 0.00 in   Mostly Cloudy